{"data":{"norad_id":56174,"intl_designator":"2023-052A","name":"INTELSAT 40E (IS-40E)","alt_names":[],"object_type":"PAYLOAD","status":"ACTIVE","operator":null,"country":"ITSO","launch_date":"2023-04-07","launch_site_code":"AFETR","launch_vehicle":null,"mission":null,"orbit_class":"UNKNOWN","rcs_meters":null,"size_class":null,"mass_kg":null,"dimensions":null,"purposes":["comms"],"wikipedia_slug":null,"has_3d_model":false,"image_url":null,"decayed_at":null,"tle_current":{"epoch":"2026-09-20T01:05:34.592064Z","epoch_age_seconds":61278,"freshness":"FRESH","line1":"1 56174U 23052A   26263.04553926 -.00000179  00000+0  00000+0 0  9994","line2":"2 56174   0.0093 151.4093 0002653  29.2806 103.6608  1.00271929 12775","mean_motion":1.00271929,"eccentricity":0.0002653,"inclination_deg":0.0093,"raan_deg":151.4093,"arg_perigee_deg":29.2806,"mean_anomaly_deg":103.6608,"bstar":0,"rev_number":1277,"period_min":1436.094841658,"perigee_km":35775.368300132,"apogee_km":35797.740885491,"semimajor_km":42164.691592812,"source":"CELESTRAK","updated_at":"2026-09-20T09:00:35.331827Z"}}}